Date String (YYYY-MM-DD hh:mm:ss) UTC,Instrument flags,Ambient pressure (hPa),Sample flow (lpm),Bypass flow (lpm),Sample temperature (°C),Ambient temperature (°C),ASC tube jacket temperature (°C),LED temperature (°C),Box temperature (°C),Sample RH (%),Span deviation,Mass concentration (μg/m³),Mass concentration (μg/m³),Mass concentration (μg/m³)
DateTimeUTC,F1_M11,P_M11,Q1_M11,Q2_M11,T1_M11,T2_M11,T3_M11,T4_M11,T5_M11,U1_M11,ZSPAN_M11,X0_M11,X2_M11,X1_M11
2023-01-27 22:00:00,,0815.2,5.00,0.00,21.8,21.3,00.0,30.7,23.7,10.2,0000.0,0000.66,0000.41,0000.25
2023-01-27 22:01:00,,0815.1,4.99,0.00,21.9,22.4,00.0,30.7,24.0,10.4,0000.0,0001.24,0000.44,0000.25
2023-01-27 22:02:00,,0815.1,4.98,0.00,22.1,22.9,00.0,30.7,24.2,10.4,0000.0,0001.43,0000.44,0000.25
2023-01-27 22:03:00,,0815.3,5.00,0.00,22.1,22.4,00.0,30.8,24.2,09.8,0000.0,0001.43,0000.44,0000.25
2023-01-27 22:04:00,,0815.3,4.99,0.00,22.1,21.9,00.0,30.8,24.1,09.5,0000.0,0001.41,0000.43,0000.26
2023-01-27 22:05:00,,0815.3,4.99,0.00,22.1,21.5,00.0,30.9,24.0,09.7,0000.0,0001.41,0000.42,0000.25
2023-01-27 22:06:00,,0815.3,5.01,0.00,22.1,21.3,00.0,30.9,23.9,10.0,0000.0,0001.41,0000.41,0000.25
2023-01-27 22:07:00,,0815.3,5.00,0.00,22.1,21.1,00.0,30.9,23.9,09.6,0000.0,0001.34,0000.39,0000.25
2023-01-27 22:08:00,,0815.3,5.00,0.00,22.1,21.0,00.0,30.9,23.8,09.8,0000.0,0001.32,0000.37,0000.26
2023-01-27 22:09:00,,0815.3,5.00,0.00,22.1,20.9,00.0,30.9,23.8,10.2,0000.0,0001.39,0000.39,0000.26
2023-01-27 22:10:00,,0815.2,5.00,0.00,22.1,20.8,00.0,30.9,23.8,10.1,0000.0,0001.39,0000.39,0000.26
2023-01-27 22:11:00,,0815.5,4.99,0.00,22.1,20.7,00.0,30.9,23.8,09.6,0000.0,0001.42,0000.40,0000.25
2023-01-27 22:12:00,,0815.5,5.01,0.00,22.0,20.6,00.0,30.9,23.7,09.5,0000.0,0001.42,0000.40,0000.25
2023-01-27 22:13:00,,0815.4,5.00,0.00,22.0,20.6,00.0,30.9,23.6,09.6,0000.0,0001.31,0000.40,0000.26
2023-01-27 22:14:00,,0815.4,4.99,0.00,22.0,20.6,00.0,30.9,23.6,09.9,0000.0,0001.46,0000.42,0000.26
2023-01-27 22:15:00,,0815.3,5.02,0.00,22.0,20.6,00.0,30.9,23.7,10.2,0000.0,0002.09,0000.45,0000.27
2023-01-27 22:16:00,,0815.2,5.00,0.00,22.0,20.5,00.0,30.9,23.6,10.2,0000.0,0002.07,0000.44,0000.27
2023-01-27 22:17:00,,0815.3,5.02,0.00,22.0,20.4,00.0,30.9,23.6,09.8,0000.0,0002.05,0000.44,0000.27
2023-01-27 22:18:00,,0815.4,5.01,0.00,22.0,20.4,00.0,30.9,23.5,10.3,0000.0,0002.05,0000.44,0000.27
2023-01-27 22:19:00,,0815.2,5.01,0.00,21.9,20.3,00.0,30.9,23.5,10.4,0000.0,0002.03,0000.44,0000.28
2023-01-27 22:20:00,,0815.3,5.01,0.00,21.9,20.3,00.0,30.9,23.5,10.2,0000.0,0001.96,0000.42,0000.28
2023-01-27 22:21:00,,0815.2,4.99,0.00,21.9,20.3,00.0,30.9,23.5,10.1,0000.0,0001.99,0000.43,0000.28
2023-01-27 22:22:00,,0815.1,4.98,0.00,21.9,20.8,00.0,30.8,23.7,10.4,0000.0,0001.98,0000.43,0000.29
2023-01-27 22:23:00,,0815.2,5.03,0.00,22.0,22.0,00.0,30.8,24.0,10.3,0000.0,0001.64,0000.42,0000.29
2023-01-27 22:24:00,,0815.3,5.00,0.00,22.2,22.9,00.0,30.8,24.3,10.2,0000.0,0001.91,0000.44,0000.29
2023-01-27 22:25:00,,0815.3,4.99,0.00,22.3,22.7,00.0,30.9,24.3,10.4,0000.0,0001.70,0000.42,0000.29
2023-01-27 22:26:00,,0815.4,5.01,0.00,22.3,22.2,00.0,31.0,24.2,10.2,0000.0,0001.12,0000.40,0000.28
2023-01-27 22:27:00,,0815.4,5.00,0.00,22.3,21.8,00.0,31.0,24.1,09.7,0000.0,0001.09,0000.39,0000.28
2023-01-27 22:28:00,,0815.4,5.00,0.00,22.3,21.5,00.0,31.0,24.1,09.9,0000.0,0001.09,0000.39,0000.29
2023-01-27 22:29:00,,0815.5,5.00,0.00,22.3,21.3,00.0,31.0,24.0,10.0,0000.0,0001.11,0000.40,0000.29
2023-01-27 22:30:00,,0815.4,5.03,0.00,22.3,21.1,00.0,31.0,24.0,09.8,0000.0,0001.13,0000.41,0000.29
2023-01-27 22:31:00,,0815.4,5.01,0.00,22.2,21.0,00.0,31.0,23.9,09.8,0000.0,0001.62,0000.41,0000.29
2023-01-27 22:32:00,,0815.4,5.01,0.00,22.2,20.8,00.0,31.1,23.9,10.0,0000.0,0001.66,0000.39,0000.29
2023-01-27 22:33:00,,0815.4,4.98,0.00,22.2,20.7,00.0,31.1,23.9,10.0,0000.0,0001.63,0000.38,0000.29
2023-01-27 22:34:00,,0815.5,5.01,0.00,22.2,20.7,00.0,31.0,23.8,10.4,0000.0,0001.36,0000.38,0000.29
2023-01-27 22:35:00,,0815.5,5.00,0.00,22.2,20.7,00.0,31.0,23.8,10.4,0000.0,0001.20,0000.41,0000.29
2023-01-27 22:36:00,,0815.5,5.00,0.00,22.1,20.7,00.0,31.0,23.8,10.5,0000.0,0001.28,0000.45,0000.28
2023-01-27 22:37:00,,0815.4,5.01,0.00,22.1,20.6,00.0,31.0,23.8,10.7,0000.0,0001.32,0000.46,0000.29
2023-01-27 22:38:00,,0815.5,5.00,0.00,22.1,20.6,00.0,31.0,23.8,10.8,0000.0,0001.38,0000.47,0000.30
2023-01-27 22:39:00,,0815.8,4.99,0.00,22.1,20.6,00.0,31.0,23.8,10.6,0000.0,0002.24,0000.47,0000.30
2023-01-27 22:40:00,,0815.4,5.01,0.00,22.1,20.6,00.0,31.0,23.8,10.3,0000.0,0002.21,0000.46,0000.29
2023-01-27 22:41:00,,0815.4,5.02,0.00,22.1,20.6,00.0,31.0,23.8,10.6,0000.0,0002.25,0000.46,0000.30
2023-01-27 22:42:00,,0815.3,4.99,0.00,22.1,20.5,00.0,31.0,23.7,10.4,0000.0,0001.89,0000.48,0000.30
2023-01-27 22:43:00,,0815.2,5.01,0.00,22.0,20.5,00.0,31.0,23.6,10.7,0000.0,0001.88,0000.49,0000.30
2023-01-27 22:44:00,,0815.1,5.00,0.00,22.0,20.5,00.0,31.0,23.6,10.7,0000.0,0001.89,0000.50,0000.31
2023-01-27 22:45:00,,0815.3,5.00,0.00,22.0,20.4,00.0,30.9,23.6,10.2,0000.0,0001.89,0000.51,0000.31
2023-01-27 22:46:00,,0815.2,5.01,0.00,21.9,20.4,00.0,30.9,23.5,10.3,0000.0,0002.91,0000.51,0000.31
2023-01-27 22:47:00,,0815.3,4.99,0.00,21.9,20.4,00.0,30.9,23.5,10.3,0000.0,0003.14,0000.50,0000.31
2023-01-27 22:48:00,,0815.3,4.97,0.00,21.9,20.4,00.0,30.9,23.5,10.2,0000.0,0003.16,0000.50,0000.31
2023-01-27 22:49:00,,0815.3,5.03,0.00,21.9,21.2,00.0,30.8,23.7,10.0,0000.0,0003.11,0000.50,0000.31
2023-01-27 22:50:00,,0815.3,4.99,0.00,22.1,22.3,00.0,30.8,24.1,10.3,0000.0,0002.39,0000.52,0000.31
2023-01-27 22:51:00,,0815.3,5.02,0.00,22.2,22.8,00.0,30.8,24.2,10.4,0000.0,0002.45,0000.55,0000.32
2023-01-27 22:52:00,,0815.2,5.01,0.00,22.2,22.1,00.0,30.9,24.1,10.0,0000.0,0002.46,0000.56,0000.32
2023-01-27 22:53:00,,0815.3,5.01,0.00,22.1,21.5,00.0,30.9,23.9,10.1,0000.0,0002.33,0000.56,0000.32
2023-01-27 22:54:00,,0815.2,4.99,0.00,22.1,21.0,00.0,31.0,23.7,10.0,0000.0,0002.30,0000.55,0000.32
2023-01-27 22:55:00,,0815.2,4.98,0.00,22.0,20.7,00.0,31.0,23.7,10.0,0000.0,0002.34,0000.56,0000.32
2023-01-27 22:56:00,,0815.4,5.01,0.00,22.0,20.5,00.0,31.0,23.6,09.3,0000.0,0002.53,0000.59,0000.32
2023-01-27 22:57:00,,0815.3,5.01,0.00,22.0,20.4,00.0,30.9,23.6,09.8,0000.0,0001.49,0000.56,0000.32
2023-01-27 22:58:00,,0815.4,5.00,0.00,21.9,20.4,00.0,30.9,23.6,09.9,0000.0,0001.47,0000.58,0000.32
2023-01-27 22:59:00,,0815.4,4.98,0.00,22.0,20.5,00.0,30.9,23.7,09.7,0000.0,0001.55,0000.59,0000.31
